Fort Simpson, Northwest Territories

10:07 PM MDT on May 28, 2017 (GMT -0600)
Fort Simpson | | Change Station

Elev 554 ft 61.75 °N, 121.23 °W | Updated 7 minutes ago

Mostly Cloudy
Mostly Cloudy
72 °F
Feels Like 72 °F
N
5
Wind Variable Wind from ESE

Today
High -- | Low -- °F
--% Chance of Precip.
Yesterday
High -- | Low -- °F
Precip. -- in
Pressure 30.06 in
Visibility 15.0 miles
Clouds Scattered Clouds 21000 ft
Dew Point 36 °F
Humidity 27%
Rainfall 0.00 in
Snow Depth Not available.
4:41 AM 11:24 PM
Waxing Crescent, 16% visible
METAR CYFS 290400Z 12004KT 070V190 15SM SCT210 22/02 A3005 RMK CI3 SLP180 DENSITY ALT 1300FT
Pressure 30.06 in
Visibility 15.0 miles
Clouds Scattered Clouds 21000 ft
Dew Point 36 °F
Humidity 27%
Rainfall 0.00 in
Snow Depth Not available.
4:41 AM 11:24 PM
Waxing Crescent, 16% visible
METAR CYFS 290400Z 12004KT 070V190 15SM SCT210 22/02 A3005 RMK CI3 SLP180 DENSITY ALT 1300FT

Get Severe Weather Alerts

Thanks for signing up!

Be on the lookout for a verification email in your inbox.

You'll start receiving the daily forecast at 6 AM.

×

10-Day Weather Forecast

Almanac

Astronomy

May. 28, 2017 Rise Set
Actual Time
Civil Twilight
Nautical Twilight
Astronomical Twilight
Moon
Length of Visible Light
Length of Day
Tomorrow will be .
, % of the Moon is Illuminated

Today's Extremes

Country Highs Country Lows

Community

WunderPhotos

Category 6

Welcome to Category 6. This is the collective home for Weather Underground's featured writeups by Dr. Jeff Masters (right), Bob Henson (left), Chris Burt, and other regular contributors.

Nearby

Air Quality

  Air Quality AQ Index Pollutant
Not available.

Snow Depth

Station Depth Elevation

Earthquake Activity

City Distance Mag. Time & Date
Minimum magnitude displayed is 2.5.

Coastal Water Temperatures

Place Temperature

Stations

Nearby Weather Stations

Station Location Temp. Windchill Dew Point Humidity Wind Precip. Elev Updated Type
                   

Watches & Warnings

There are currently no watches in effect.